Retour au catalogue

STARLINK-30081

ActifCommunicationsVLEO
NORAD 57515·PAYLOAD·🇺🇸 United States

Lancé Aug 7, 2023 depuis Cape Canaveral Space Force Station

Loading…

Prochains Passages (prochaines 24 heures)

TLE

FraisSource: CelesTrak SupGP

Époque: Sep 15, 2026, 01:39 UTC

1 57515C 23113W   26258.06923611 -.00022767  00000+0 -82448-3 0  2586
2 57515  43.0042  26.2445 0001717 269.1421  34.6197 15.27594514    16

Suivez STARLINK-30081 en temps réel avec AllMySat

Download on the App Store